Погода в Уюке

Погода в Уюке : погода сейчас, прогноз погоды и архив. Всё, что Вы хотите узнать о погоде в Уюке!

Поиск расширенной информации на нашем сайте:

Другие новости

Новости СМИ2

Главная страница сайта

Новости сайта

02.10.2013

Напоминаем, что на нашем новом сайте вы можете получить высокодетализированные прогнозы погоды по пунктам России, СНГ и мира (включающие важные для авиации метеовеличины, такие как направление и скорость ветра, видимость, явления погоды, количество и форма облачности, нижняя и верхняя граница облачности), а также ознакомиться с разнообразными материалами по авиационной метеорологии и подборкой полезных ссылок на эту тему.

Сайт Метеоцентр.Азия посвящён разработке технологий оптимизации авиаметеорологического обслуживания, включая проектирование и перспективное создание нескольких автоматизированных авиаметеорологических систем:
- система выпуска высокодетальных прогностических карт явлений погоды для нижнего воздушного пространства по России и ближнему зарубежью;
- система верификации прогнозов TAF (выпускаемых синоптиками официальных АМСГ РФ и ближнего зарубежья) и AUTOTAF (выпускаемых сайтом Метеоцентр.Азия) - выявление ошибок, онлайн-сопоставление с фактической погодой METAR, автоматическое внесение коррективов в прогнозы при резком отклонении фактической погоды от прогноза, подсчёт оправдываемости прогнозов по элементам и в целом;
- система обработки, анализа и отображения авиаметеорологической информации для применения провайдерами метеорологической информации.

Рекомендуем: мольберт детский

Погода в Уюке - сегодня

Время (UTC), дата Ветер
(°,м/с) 
Видим.   Явления Облачность Т
(°С)
Тd
(°С)
f(%) Тe
(°С)
Pmin
(гПа)
dP
(гПа)
Po
(мм)
O2
(г/м3)
Тmin Tmax R s Состояние
почвы
12 17.01.17 180 (Ю) 20000 м    9/0 средняя, верхняя 
[Ac lent|Ci sp]
-6.9 -11.6 69 -7  1032.5  0.3  738  306           
15 17.01.17 тихо ()   20000 м    3/0 верхняя 
[Ci sp]
-9.5 -13 76 -10  1032.9  0.1  738  309    -6.9       
18 17.01.17 090 (В) 20000 м    ясно 
-11.3 -14.1 80 -13  1032.6  -0.7  738  311    -6.9       
21 17.01.17 100 (В) 20000 м    ясно 
-13 -15 85 -13  1032.7  -0.3  738  313           
00 18.01.17 070 (В) 20000 м    3/0 верхняя 
[Cs]
-13.6 -15.6 85 -14  1032.1  -0.5  737  314           
06 18.01.17 тихо ()   20000 м    9/0 верхняя 
[Cs]
-10.9 -14.5 75 -11  1033.9  1.2  739  311           
09 18.01.17 тихо ()   20000 м    9/0 верхняя 
[Cc]
-4.9 -10.2 66 -5  1032.2  -0.6  738  304           
12 18.01.17 тихо ()   20000 м    9/0 средняя, верхняя 
[Ac trans|Ci sp]
-3.8 -9.6 64 -4  1033.1  739  303           
15 18.01.17 тихо ()   20000 м    9/0 средняя, верхняя 
[Ac lent|Ci sp]
-5.7 -10 72 -6  1033.5  0.2  739  305    -3.8       
18 18.01.17 090 (В) 20000 м    8/0 средняя, верхняя 
[Ac lent|Ci sp]
-8.3 -12 75 -8  1033.7  -0.4  739  308    -3.8       
21 18.01.17 тихо ()   20000 м    4/0 верхняя 
[Ci sp]
-10.2 -13 80 -10  1033.5  -0.4  739  310           
00 19.01.17 090 (В) 20000 м    3/0 верхняя 
[Ci sp]
-10 -12.8 80 -10  1033  -0.5  738  310           
06 19.01.17 тихо ()   20000 м    3/0 верхняя 
[Ci sp]
-0.3 -5.9 66 -0  1032.2  0.9  739  299           
09 19.01.17 180 (Ю) 20000 м    ясно 
+7 -7.4 35 +8  1029.3  -1.6  738  291           
12 19.01.17 120 (ЮВ) 20000 м    6/0 средняя, верхняя 
[Ac lent|Ci sp]
+4.5 -7.3 42 +5  1029.7  -0.1  738  293           
15 19.01.17 110 (В) 20000 м    8/0 средняя, верхняя 
[Ac lent|Ci sp]
-0.4 -5.7 67 -1  1029.5  -0.8  737  298    +7       
18 19.01.17 180 (Ю) 20000 м    6/0 средняя, верхняя 
[Ac trans|Ci sp]
+0.4 -4.7 69 -1  1028.9  -0.4  737  297    +7       
21 19.01.17 160 (Ю) 20000 м    8/0 средняя, верхняя 
[Ac lent|Ci sp]
+0 -4.4 72 +1  1028.9  -0.2  737  297           
00 20.01.17 290 (З) 20000 м    3/0 верхняя 
[Ci sp]
-2.1 -5.9 75 -2  1028.8  -0.5  736  300           
06 20.01.17 270 (З) 20000 м    10/0 верхняя 
[Cs]
-3.5 -6.7 78 -5  1029.7  0.4  737  301           
09 20.01.17 230 (ЮЗ) 20000 м    9/0 средняя 
[Ac lent]
+3.1 -3.7 61 +3  1026.7  -1.7  736  293           
12 20.01.17 180 (Ю) 20000 м    9/0 
+2.7 -3.9 62 +2  1025  -1.8  734  293           
15 20.01.17 140 (ЮВ) 20000 м    10/0 средняя 
[Ac As]
+1.3 -3.9 68 +2  1024.1  -1.1  733  294    +3.1       
18 20.01.17 180 (Ю) 20000 м    10/0 средняя 
[Ac As]
+1.7 -3 71 +1  1022  -2  732  293    +3.1       
21 20.01.17 170 (Ю) 20000 м    10/0 средняя 
[Ac As]
+1.4 -3.1 72 +2  1020.3  -1.6  731  293           
Время (UTC), дата Ветер
(°,м/с) 
Видим.   Явления Облачность Т
(°С)
Тd
(°С)
f(%) Тe
(°С)
Pmin
(гПа)
dP
(гПа)
Po
(мм)
O2
(г/м3)
Тmin Tmax R s Состояние
почвы

Для получения пояснительной информации подведите курсор к названию столбца.

ПОГОДА в Уюке - архив

Всё, что Вы хотите узнать о погоде в Уюке - удобно и подробно!

Выберите нужную дату (начиная с 1 января 2015* года) и нажмите кнопку "Найти".
Будут отображены архивные сводки погоды по пункту Уюк, начиная с указанной даты.


Отображать данные в формате CSV (для использования в таблицах Excel)


Внимание! Наш архив погоды предназначен исключительно для личного некоммерческого использования в познавательных целях. Если Вам необходимы официальные справки о состоянии погоды (для производственных, юридических, коммерческих и т.п. целей), обращайтесь в органы Росгидромета.

*Примечание: данная дата относится к архиву по метеостанциям СССР (Россия, СНГ, Балтия).
Архив по метеостанциям Зарубежной Европы и Азии (кроме Китая) хранится 10 дней, по другим регионам земного шара (Китай, Африка, Америка, Австралия, Океания) - 1 день.

Уюк - район местоположения метеостанции


Название, широта, долгота, высота метеостанции:
Уюк 43.8°ш. 70.9°д. 366 м над ур. моря [Казахстан]

Дополнительная информация

В oтличие oт бoльшинства пoгoдных сайтoв мы публикуем пoдрoбную метеoинфoрмацию в детальнoм прoфессиoнальнoм фoрмате.

Характеристики температуры и влажнoсти вoздуха измеряются на высoте 2 м в тени вдали oт зданий и деревьев.
Скoрoсть ветра измеряется на высoте 10 м (на урoвне рoста челoвека скoрoсть ветра ниже в 1.5-2 раза). Если метеoстанция нахoдится в гoрoде или в лесу, тo скoрoсть ветра занижена на 2-4 м/с пo сравнению с oткрытым местoм. Скoрoсть ветра над акватoриями крупных рек и oзёр, а также на вершинах хoлмoв на 2-5 м/с выше, чем в oбычных услoвиях.
Атмoсфернoе давление в разных тoчках местнoсти мoжет значительнo oтличаться oт давления на метеoстанции, в зависимoсти oт услoвий рельефа (при пoдъёме на 10 м давление пoнижается примернo на 1 мм рт.ст.).